This is the latest recevied weather packets stored in our database for station/object KJ4AJP. If no packets are shown the sender has not sent any weather packets the latest 10 day(s).
| Time | Temp. | Humidity | Pressure | Rain* | Wind** | Luminosity | Snow |
|---|---|---|---|---|---|---|---|
| 1777412420 | 23.33° C | 88% | 1012.5 hPa | 1.78 mm | - | 4 W/m² | - |
| 1777412119 | 23.33° C | 87% | 1012.1 hPa | 1.78 mm | - | 4 W/m² | - |
| 1777411815 | 23.33° C | 87% | 1011.6 hPa | 0 mm | - | 4 W/m² | - |
| 1777411514 | 23.89° C | 86% | 1011.4 hPa | 0 mm | - | 5 W/m² | - |
| 1777411209 | 23.89° C | 85% | 1011.3 hPa | 0 mm | - | 7 W/m² | - |
| 1777410903 | 23.89° C | 83% | 1011.4 hPa | 0 mm | - | 8 W/m² | - |
| 1777410603 | 24.44° C | 82% | 1011.8 hPa | 0 mm | - | 9 W/m² | - |
| 1777410303 | 24.44° C | 81% | 1012.2 hPa | 0 mm | - | 10 W/m² | - |
| 1777409997 | 24.44° C | 81% | 1012.4 hPa | 0 mm | - | 13 W/m² | - |
| 1777409693 | 24.44° C | 80% | 1012.2 hPa | 0 mm | - | 16 W/m² | - |
| 1777409389 | 25° C | 79% | 1012.1 hPa | 0 mm | - | 19 W/m² | - |
| 1777409085 | 25° C | 79% | 1011.8 hPa | 0 mm | - | 19 W/m² | - |
| 1777408781 | 25° C | 77% | 1012 hPa | 0 mm | - | 20 W/m² | - |
| 1777408477 | 25° C | 76% | 1012 hPa | 0 mm | - | 17 W/m² | - |
| 1777408172 | 25.56° C | 75% | 1012.5 hPa | 0 mm | - | 13 W/m² | - |
| 1777407867 | 25.56° C | 75% | 1012.7 hPa | 0 mm | - | 19 W/m² | - |
| 1777407566 | 25.56° C | 74% | 1012.6 hPa | 0 mm | - | 30 W/m² | - |
| 1777407259 | 25.56° C | 74% | 1012.2 hPa | 0 mm | - | 53 W/m² | - |
| 1777406958 | 26.11° C | 73% | 1011.7 hPa | 0 mm | - | 114 W/m² | - |
| 1777406653 | 26.11° C | 72% | 1012.3 hPa | 0 mm | - | 75 W/m² | - |
| 1777406350 | 26.67° C | 71% | 1012.4 hPa | 0 mm | - | 95 W/m² | - |
| 1777406049 | 26.67° C | 70% | 1012.7 hPa | 0 mm | - | 143 W/m² | - |
| 1777405746 | 26.67° C | 71% | 1012.7 hPa | 0 mm | - | 145 W/m² | - |
| 1777405442 | 27.22° C | 70% | 1012.7 hPa | 0 mm | - | 194 W/m² | - |
| 1777405140 | 26.67° C | 69% | 1012.8 hPa | 0 mm | - | 255 W/m² | - |
* Rain latest hour (hover to see other rain measurements)
** Current wind speed in m/s (hover to see current wind gust speed)